Tracking 25620 objects as of 18-May-2022
HD Live streaming from Space Station
objects crossing your sky now

COSMOS 2251 DEB

Track COSMOS 2251 DEB now!
10-day predictions


NORAD ID: 34037
Int'l Code: 1993-036HY
Perigee: 759.4 km
Apogee: 845.2 km
Inclination: 74.1 °
Period: 100.8 minutes
Semi major axis: 7173 km
RCS: 0.0548 m2 (small)
Launch date: June 16, 1993
Source: Commonwealth of Independent States (former USSR) (CIS)
Launch site: PLESETSK MISSILE AND SPACE COMPLEX (PKMTR)

Note: This is SATELLITE DEBRIS
aabbcc
Your satellite tracking list
Your tracking list is empty




NASA's NSSDC Master Catalog

Two Line Element Set (TLE):
1 34037U 93036HY  22137.79511390  .00001180  00000-0  46781-3 0  9997
2 34037  74.0526 266.1368 0059811 278.3076  81.1294 14.28987823690453
Source of the keplerian elements: AFSPC